Regional Weather Roundup
Issued by NWS Goodland, KS

Home | Current Version | Previous Version | Graphics & Text | Print | Product List | Glossary On
Versions: 1 2 3 4 5 6 7 8 9 10 11 12 13 14 15 16 17 18 19 20 21 22 23 24 25 26 27 28 29 30 31 32 33 34 35 36 37 38 39 40 41 42 43 44 45 46 47 48 49 50
563
ASUS43 KGLD 220359
RWRGLD

GOODLAND FORECAST AREA HOURLY WEATHER ROUNDUP
NATIONAL WEATHER SERVICE GOODLAND KS
900 PM MST SAT JAN 21 2017

...OFFICIAL OBSERVATIONS...

CITY           SKY/WX    TMP DP  RH WIND       PRES   REMARKS
GOODLAND KS    CLOUDY    30  27  88 N7        29.57R
HILL CITY KS   MOCLDY    38  35  89 N9        29.55R
IMPERIAL NEB   CLOUDY    33  26  75 NW7       29.59R
MCCOOK NEB     CLEAR     32  26  78 NW12      29.57R
AKRON CO       CLOUDY    34  23  64 NE3       29.60R
BURLINGTON CO  CLOUDY    35  29  78 N8        29.58R
LIMON CO       CLOUDY    28  27  96 NW3       29.60R
$$

...UNOFFICIAL OBSERVATIONS...

CITY           SKY/WX    TMP DP  RH WIND       PRES   REMARKS
LENORA KS        N/A     37  32  82 CALM        N/A
NORTON KS      CLEAR     34  28  80 N5        29.54R
SHARON SPRINGS   N/A     36  33  88 NE6         N/A
TRENTON NEB      N/A     33  32  96 NW6         N/A
KIT CARSON CO    N/A     34  29  82 MISG        N/A
YUMA CO        MOCLDY    32  27  80 N6        29.60R
$$




USA.gov is the U.S. government's official web portal to all federal, state and local government web resources and services.